BAW770 EGLL-ESSA

Flight info

Callsign BAW770
Flight time N/A
Altitude 35000
Route BPK6J BPK Q295 MATCH P144 SAMHO DCT LARGA DCT SOPTO DCT DETSO N873 ARS T317 ELTOK ELTOK8P
Aircraft A21N/M-SDE3FGIJ1LRWXYZ/SB1G1

Departure

Time N/A
Airport London Heathrow Airport (EGLL)

Arrival

Time 2026-05-06 16:52
Airport Stockholm-Arlanda Airport (ESSA)
Time Latitude Longitude Altitude Speed Heading
2026-05-06 15:32 54.75213 4.00130 35014 ft 458 kts 37°
2026-05-06 15:32 54.77731 4.03546 35014 ft 458 kts 37°
2026-05-06 15:33 54.82742 4.10370 35010 ft 459 kts 37°
2026-05-06 15:33 54.87582 4.17578 35007 ft 460 kts 46°
2026-05-06 15:34 54.91914 4.25751 35017 ft 460 kts 47°
2026-05-06 15:34 54.96210 4.33911 34999 ft 461 kts 47°
2026-05-06 15:35 55.00543 4.42150 34995 ft 461 kts 47°
2026-05-06 15:35 55.04865 4.50393 34994 ft 460 kts 47°
2026-05-06 15:36 55.09179 4.58650 35003 ft 461 kts 47°
2026-05-06 15:36 55.13496 4.66938 35012 ft 461 kts 47°
2026-05-06 15:37 55.17800 4.75235 35006 ft 461 kts 47°
2026-05-06 15:37 55.22105 4.83562 35010 ft 461 kts 47°
2026-05-06 15:38 55.26403 4.91900 35008 ft 461 kts 47°
2026-05-06 15:38 55.30660 5.00301 35009 ft 461 kts 51°
2026-05-06 15:39 55.34539 5.09284 35004 ft 461 kts 53°
2026-05-06 15:39 55.38350 5.18267 35004 ft 461 kts 53°
2026-05-06 15:40 55.42190 5.27328 35002 ft 462 kts 53°
2026-05-06 15:40 55.46026 5.36407 34984 ft 462 kts 53°
2026-05-06 15:41 55.49859 5.45514 34981 ft 462 kts 53°
2026-05-06 15:41 55.53683 5.54638 34981 ft 463 kts 53°
2026-05-06 15:42 55.57509 5.63794 34982 ft 463 kts 53°
2026-05-06 15:42 55.61327 5.72971 34982 ft 464 kts 53°
2026-05-06 15:43 55.65115 5.82112 34980 ft 464 kts 53°
2026-05-06 15:43 55.68927 5.91341 34979 ft 464 kts 54°
2026-05-06 15:44 55.72733 6.00589 34975 ft 464 kts 54°
2026-05-06 15:44 55.76530 6.09849 34970 ft 463 kts 54°
2026-05-06 15:45 55.79677 6.17551 34972 ft 463 kts 54°
2026-05-06 15:45 55.84075 6.28359 34970 ft 463 kts 54°
2026-05-06 15:46 55.87845 6.37663 34965 ft 463 kts 54°
2026-05-06 15:46 55.90974 6.45411 34960 ft 463 kts 54°
2026-05-06 15:47 55.94729 6.54746 34959 ft 463 kts 54°
2026-05-06 15:47 55.98480 6.64098 34959 ft 462 kts 54°
2026-05-06 15:48 56.02216 6.73451 34959 ft 464 kts 54°
2026-05-06 15:48 56.05967 6.82877 34952 ft 465 kts 54°
2026-05-06 15:49 56.09710 6.92324 34951 ft 465 kts 54°
2026-05-06 15:49 56.13428 7.01745 34946 ft 466 kts 54°
2026-05-06 15:50 56.17075 7.11019 34950 ft 465 kts 55°
2026-05-06 15:50 56.20793 7.20525 34946 ft 465 kts 55°
2026-05-06 15:51 56.24512 7.30034 34945 ft 465 kts 55°
2026-05-06 15:51 56.28220 7.39565 34941 ft 465 kts 55°
2026-05-06 15:52 56.31916 7.49107 34949 ft 464 kts 55°
2026-05-06 15:52 56.35604 7.58668 34945 ft 464 kts 55°
2026-05-06 15:53 56.39284 7.68244 34946 ft 464 kts 55°
2026-05-06 15:53 56.42923 7.77756 34946 ft 464 kts 56°
2026-05-06 15:54 56.46583 7.87365 34954 ft 463 kts 56°
2026-05-06 15:54 56.50240 7.96990 34957 ft 464 kts 56°
2026-05-06 15:55 56.53891 8.06645 34944 ft 464 kts 56°
2026-05-06 15:55 56.57533 8.16316 34942 ft 465 kts 56°
2026-05-06 15:56 56.61169 8.26009 34941 ft 465 kts 56°
2026-05-06 15:56 56.64783 8.35680 34939 ft 465 kts 56°
2026-05-06 15:57 56.68414 8.45438 34940 ft 466 kts 56°
2026-05-06 15:57 56.72043 8.55220 34942 ft 466 kts 56°
2026-05-06 15:58 56.75662 8.65026 34941 ft 466 kts 56°
2026-05-06 15:58 56.79274 8.74855 34950 ft 467 kts 56°
2026-05-06 15:59 56.82884 8.84707 34951 ft 467 kts 56°
2026-05-06 15:59 56.86486 8.94585 34952 ft 467 kts 57°
2026-05-06 16:00 56.90082 9.04486 34949 ft 467 kts 57°
2026-05-06 16:00 56.93651 9.14347 34948 ft 468 kts 57°
2026-05-06 16:01 56.97232 9.24296 34957 ft 468 kts 57°
2026-05-06 16:01 57.00806 9.34260 34961 ft 468 kts 57°
2026-05-06 16:02 57.04375 9.44247 34959 ft 468 kts 57°
2026-05-06 16:02 57.07940 9.54262 34961 ft 468 kts 57°
2026-05-06 16:03 57.11502 9.64304 34963 ft 469 kts 57°
2026-05-06 16:03 57.15058 9.74379 34965 ft 469 kts 57°
2026-05-06 16:04 57.18609 9.84484 34958 ft 470 kts 57°
2026-05-06 16:04 57.22127 9.94555 34959 ft 469 kts 57°
2026-05-06 16:05 57.25664 10.04694 34960 ft 470 kts 57°
2026-05-06 16:05 57.29193 10.14867 34960 ft 470 kts 58°
2026-05-06 16:06 57.32714 10.25055 34959 ft 470 kts 58°
2026-05-06 16:06 57.36227 10.35272 34963 ft 470 kts 58°
2026-05-06 16:07 57.39737 10.45517 34963 ft 470 kts 58°
2026-05-06 16:07 57.43235 10.55790 34957 ft 470 kts 58°
2026-05-06 16:08 57.46707 10.65998 34947 ft 470 kts 58°
2026-05-06 16:08 57.50186 10.76280 34950 ft 470 kts 58°
2026-05-06 16:09 57.53658 10.86589 34948 ft 469 kts 58°
2026-05-06 16:09 57.57110 10.96893 34940 ft 469 kts 58°
2026-05-06 16:10 57.60559 11.07228 34941 ft 469 kts 59°
2026-05-06 16:10 57.64001 11.17582 34945 ft 469 kts 59°
2026-05-06 16:11 57.67434 11.27952 34944 ft 470 kts 59°
2026-05-06 16:11 57.70860 11.38362 34930 ft 470 kts 59°
2026-05-06 16:12 57.74281 11.48787 34931 ft 470 kts 59°
2026-05-06 16:12 57.77675 11.59181 34931 ft 471 kts 59°
2026-05-06 16:13 57.81080 11.69656 34930 ft 470 kts 59°
2026-05-06 16:13 57.84481 11.80171 34930 ft 470 kts 59°
2026-05-06 16:14 57.87872 11.90693 34931 ft 471 kts 59°
2026-05-06 16:14 57.91259 12.01229 34930 ft 471 kts 59°
2026-05-06 16:15 57.94628 12.11789 34930 ft 471 kts 60°
2026-05-06 16:15 57.97972 12.22299 34930 ft 471 kts 60°
2026-05-06 16:16 58.01326 12.32900 34929 ft 470 kts 60°
2026-05-06 16:16 58.04682 12.43535 34921 ft 472 kts 60°
2026-05-06 16:17 58.08024 12.54201 34921 ft 472 kts 60°
2026-05-06 16:17 58.11362 12.64880 34919 ft 472 kts 60°
2026-05-06 16:18 58.14693 12.75596 34916 ft 472 kts 60°
2026-05-06 16:18 58.18014 12.86327 34910 ft 472 kts 60°
2026-05-06 16:19 58.21328 12.97094 34910 ft 472 kts 60°
2026-05-06 16:19 58.24633 13.07873 34911 ft 472 kts 60°
2026-05-06 16:20 58.27933 13.18670 34911 ft 472 kts 61°
2026-05-06 16:20 58.31200 13.29428 34910 ft 472 kts 61°
2026-05-06 16:21 58.34479 13.40271 34914 ft 472 kts 61°
2026-05-06 16:21 58.37747 13.51122 34919 ft 472 kts 61°
2026-05-06 16:22 58.41001 13.61985 34920 ft 471 kts 61°
2026-05-06 16:22 58.44239 13.72846 34919 ft 471 kts 62°
2026-05-06 16:23 58.47445 13.83650 34920 ft 470 kts 62°
2026-05-06 16:23 58.50657 13.94541 34927 ft 470 kts 62°
2026-05-06 16:24 58.53873 14.05461 34930 ft 470 kts 62°
2026-05-06 16:24 58.57076 14.16391 34930 ft 471 kts 62°
2026-05-06 16:25 58.60407 14.27227 34927 ft 472 kts 54°
2026-05-06 16:25 58.64551 14.37012 34932 ft 473 kts 50°
2026-05-06 16:26 58.68770 14.46700 34931 ft 473 kts 51°
2026-05-06 16:26 58.72940 14.56395 34930 ft 473 kts 51°
2026-05-06 16:27 58.77132 14.66173 34930 ft 473 kts 51°
2026-05-06 16:27 58.81318 14.75985 34929 ft 474 kts 51°
2026-05-06 16:28 58.83399 14.80877 34308 ft 472 kts 51°
2026-05-06 16:28 58.85498 14.85821 33276 ft 480 kts 51°
2026-05-06 16:28 58.87618 14.90826 32525 ft 481 kts 51°
2026-05-06 16:28 58.89733 14.95833 31862 ft 481 kts 51°
2026-05-06 16:29 58.91848 15.00851 31273 ft 479 kts 51°
2026-05-06 16:29 58.93945 15.05833 30743 ft 476 kts 51°
2026-05-06 16:29 58.96024 15.10783 30216 ft 473 kts 51°
2026-05-06 16:29 58.98064 15.15644 29700 ft 470 kts 51°
2026-05-06 16:30 59.00123 15.20563 29155 ft 469 kts 51°
2026-05-06 16:30 59.01508 15.23884 28777 ft 467 kts 51°
2026-05-06 16:30 59.04201 15.30355 28081 ft 463 kts 51°
2026-05-06 16:30 59.06220 15.35212 27565 ft 460 kts 51°
2026-05-06 16:31 59.08220 15.40034 27022 ft 457 kts 51°
2026-05-06 16:31 59.10210 15.44838 26483 ft 455 kts 51°
2026-05-06 16:31 59.12187 15.49625 25947 ft 452 kts 51°
2026-05-06 16:31 59.14143 15.54376 25422 ft 449 kts 51°
2026-05-06 16:32 59.16089 15.59109 24912 ft 445 kts 51°
2026-05-06 16:32 59.18018 15.63801 24379 ft 442 kts 50°
2026-05-06 16:32 59.19933 15.68475 23841 ft 440 kts 50°
2026-05-06 16:32 59.21832 15.73123 23329 ft 437 kts 50°
2026-05-06 16:33 59.23716 15.77745 22826 ft 433 kts 50°
2026-05-06 16:33 59.25584 15.82338 22317 ft 431 kts 50°
2026-05-06 16:33 59.27442 15.86911 21796 ft 428 kts 50°
2026-05-06 16:34 59.31118 15.95985 20756 ft 423 kts 50°
2026-05-06 16:34 59.32932 16.00483 20262 ft 419 kts 50°
2026-05-06 16:34 59.34729 16.04944 19787 ft 415 kts 50°
2026-05-06 16:34 59.36509 16.09370 19322 ft 412 kts 50°
2026-05-06 16:35 59.38267 16.13746 18863 ft 404 kts 50°
2026-05-06 16:35 59.39989 16.18042 18436 ft 397 kts 50°
2026-05-06 16:35 59.41675 16.22256 18011 ft 389 kts 50°
2026-05-06 16:35 59.43331 16.26396 17617 ft 382 kts 50°
2026-05-06 16:36 59.44412 16.29108 17346 ft 378 kts 50°
2026-05-06 16:36 59.46018 16.33143 16925 ft 374 kts 50°
2026-05-06 16:36 59.47618 16.37166 16522 ft 373 kts 50°
2026-05-06 16:36 59.49212 16.41184 16126 ft 372 kts 50°
2026-05-06 16:37 59.50805 16.45204 15727 ft 372 kts 50°
2026-05-06 16:37 59.52394 16.49221 15337 ft 371 kts 51°
2026-05-06 16:37 59.53979 16.53234 14943 ft 369 kts 51°
2026-05-06 16:37 59.55551 16.57224 14548 ft 368 kts 51°
2026-05-06 16:38 59.57125 16.61220 14138 ft 367 kts 51°
2026-05-06 16:38 59.58745 16.65010 13743 ft 365 kts 43°
2026-05-06 16:38 59.60717 16.68124 13347 ft 362 kts 34°
2026-05-06 16:38 59.62761 16.70992 12971 ft 358 kts 33°
2026-05-06 16:39 59.64775 16.73800 12602 ft 350 kts 34°
2026-05-06 16:39 59.66737 16.76560 12227 ft 343 kts 34°
2026-05-06 16:39 59.68661 16.79284 11855 ft 337 kts 34°
2026-05-06 16:39 59.70554 16.81972 11489 ft 333 kts 34°
2026-05-06 16:40 59.72431 16.84642 11123 ft 332 kts 34°
2026-05-06 16:40 59.74302 16.87313 10793 ft 328 kts 35°
2026-05-06 16:40 59.76120 16.89914 10596 ft 317 kts 35°
2026-05-06 16:40 59.77872 16.92425 10440 ft 305 kts 35°
2026-05-06 16:41 59.79561 16.94851 10284 ft 294 kts 35°
2026-05-06 16:41 59.81159 16.97305 10091 ft 288 kts 43°
2026-05-06 16:41 59.82351 17.00468 9811 ft 287 kts 65°
2026-05-06 16:41 59.82878 17.04256 9504 ft 285 kts 83°
2026-05-06 16:42 59.83056 17.08178 9151 ft 284 kts 86°
2026-05-06 16:42 59.83175 17.12093 8771 ft 283 kts 87°
2026-05-06 16:42 59.83286 17.15978 8404 ft 281 kts 87°
2026-05-06 16:42 59.83397 17.19851 8036 ft 279 kts 87°
2026-05-06 16:43 59.83506 17.23687 7703 ft 276 kts 87°
2026-05-06 16:43 59.83616 17.27484 7335 ft 275 kts 87°
2026-05-06 16:43 59.83726 17.31274 6978 ft 273 kts 87°
2026-05-06 16:43 59.83832 17.35032 6674 ft 272 kts 87°
2026-05-06 16:44 59.83939 17.38782 6401 ft 271 kts 87°
2026-05-06 16:44 59.84048 17.42507 6143 ft 269 kts 87°
2026-05-06 16:44 59.84155 17.46211 5895 ft 268 kts 87°
2026-05-06 16:44 59.84262 17.49895 5645 ft 266 kts 87°
2026-05-06 16:45 59.84369 17.53520 5397 ft 265 kts 87°
2026-05-06 16:45 59.84477 17.57173 5147 ft 264 kts 87°
2026-05-06 16:45 59.84587 17.60814 4898 ft 263 kts 87°
2026-05-06 16:45 59.84700 17.64442 4648 ft 262 kts 87°
2026-05-06 16:46 59.84812 17.68044 4392 ft 261 kts 87°
2026-05-06 16:46 59.84925 17.71639 4153 ft 258 kts 87°
2026-05-06 16:46 59.85036 17.75138 3984 ft 248 kts 87°
2026-05-06 16:46 59.85148 17.78501 3835 ft 239 kts 87°
2026-05-06 16:47 59.85257 17.81749 3692 ft 230 kts 87°
2026-05-06 16:47 59.85364 17.84883 3553 ft 226 kts 88°
2026-05-06 16:47 59.85473 17.88006 3424 ft 226 kts 87°
2026-05-06 16:47 59.85583 17.91114 3303 ft 225 kts 87°
2026-05-06 16:48 59.85494 17.94191 3156 ft 223 kts 109°
2026-05-06 16:48 59.84683 17.96748 3031 ft 220 kts 139°
2026-05-06 16:48 59.83338 17.98140 2910 ft 220 kts 163°
2026-05-06 16:48 59.81852 17.98844 2784 ft 220 kts 167°
2026-05-06 16:49 59.80356 17.99476 2666 ft 220 kts 167°
2026-05-06 16:49 59.78860 18.00095 2548 ft 218 kts 169°
2026-05-06 16:49 59.77387 18.00290 2461 ft 206 kts 182°
2026-05-06 16:49 59.76002 17.99949 2347 ft 199 kts 189°
2026-05-06 16:50 59.74650 17.99431 2111 ft 198 kts 189°
2026-05-06 16:50 59.73339 17.98946 1882 ft 186 kts 189°
2026-05-06 16:50 59.72114 17.98500 1680 ft 172 kts 188°
2026-05-06 16:50 59.70975 17.98084 1434 ft 162 kts 188°
2026-05-06 16:51 59.69893 17.97691 1192 ft 154 kts 188°
2026-05-06 16:51 59.68876 17.97321 965 ft 144 kts 188°
2026-05-06 16:51 59.67892 17.96964 774 ft 144 kts 188°
2026-05-06 16:51 59.66909 17.96607 589 ft 144 kts 188°
2026-05-06 16:52 59.65930 17.96265 393 ft 142 kts 187°
2026-05-06 16:52 59.64961 17.95914 178 ft 141 kts 188°
2026-05-06 16:52 59.64028 17.95589 116 ft 125 kts 190°
2026-05-06 16:52 59.63472 17.95358 127 ft 49 kts 204°
2026-05-06 16:53 59.63264 17.95077 128 ft 15 kts 220°
2026-05-06 16:53 59.63261 17.94919 127 ft 15 kts 332°
2026-05-06 16:53 59.63369 17.94932 126 ft 16 kts 10°
2026-05-06 16:53 59.63485 17.94973 122 ft 17 kts 10°
2026-05-06 16:54 59.63608 17.95018 120 ft 19 kts 10°
2026-05-06 16:54 59.63738 17.95066 116 ft 20 kts 11°
2026-05-06 16:54 59.63878 17.95117 115 ft 21 kts 11°
2026-05-06 16:54 59.64028 17.95172 114 ft 23 kts 11°
2026-05-06 16:55 59.64188 17.95230 112 ft 24 kts
2026-05-06 16:55 59.64344 17.95151 110 ft 24 kts 316°
2026-05-06 16:55 59.64404 17.94844 108 ft 26 kts 261°
2026-05-06 16:55 59.64323 17.94524 108 ft 27 kts 237°
2026-05-06 16:56 59.64223 17.94206 109 ft 28 kts 238°
2026-05-06 16:56 59.64117 17.93878 115 ft 29 kts 238°
2026-05-06 16:56 59.64013 17.93551 116 ft 21 kts 237°
2026-05-06 16:56 59.63996 17.93276 114 ft 21 kts 291°
2026-05-06 16:57 59.64064 17.93011 114 ft 22 kts 297°
2026-05-06 16:57 59.64136 17.92735 115 ft 23 kts 297°
2026-05-06 16:57 59.64200 17.92495 119 ft 14 kts 304°
2026-05-06 16:57 59.64275 17.92534 116 ft 14 kts 80°
2026-05-06 16:58 59.64240 17.92685 114 ft 5 kts 110°
2026-05-06 16:58 59.64262 17.92750 113 ft 7 kts 35°
2026-05-06 16:58 59.64303 17.92807 118 ft 8 kts 36°
2026-05-06 16:58 59.64335 17.92853 116 ft 3 kts 36°
2026-05-06 16:59 59.64341 17.92861 118 ft 0 kts 36°
2026-05-06 16:59 59.64343 17.92864 117 ft 0 kts 36°